Notices

What's New in latest Release from April 7th, 2021:

- Updated Glossary, including Speed of Maximum Gust, and Total Hourly Precipitation

- Updated national and regional climate services offices contacts and prices information

- Addition of station inventory lists for 1981-2010, 1971-2000, and 1961-1990 Normals.

If you haven't already, please take our survey and provide feedback about our website: https://eccc.sondage-survey.ca/f/LanguageSelection.aspx?s=442ca660-fcf1-47c0-95a9-59707d6fd709

Hourly Data Report for January 08, 2020

SATURNA ISLAND CS
BRITISH COLUMBIA
Current Station Operator: ECCC - MSC

48°47'02.067" N
123°02'41.082" W
24.40 m
1017101
71473
WEZ

Download Data

Hourly Data (January 2020)
Hourly Data Report for January 8, 2020
TIME
LST
Temp Definition
°C
Dew Point Definition
°C
Rel Hum Definition
%
Precip. Amount Definition
mm

Wind Dir Definition
10's deg

Wind Spd Definition
km/h
Visibility Definition
km
Stn Press Definition
kPa
Hmdx Definition


Wind Chill Definition


Weather Definition


00:00 7.0 3.6 79 0.0 26 9   100.13     LegendNANA
01:00 6.3 1.9 74 0.0 25 13   100.16     LegendNANA
02:00 5.9 1.3 73 0.0 27 6   100.27     LegendNANA
03:00 5.5 0.4 70 0.0 26 11   100.41     LegendNANA
04:00 5.2 0.6 72 0.0 28 7   100.45     LegendNANA
05:00 5.1 0.0 70 0.0 26 7   100.44     LegendNANA
06:00 4.9 2.8 86 0.0 28 5   100.50     LegendNANA
07:00 4.6 1.9 82 0.0 29 5   100.55     LegendNANA
08:00 4.6 1.1 78 0.0 28 5   100.56     LegendNANA
09:00 4.5 0.5 75 0.0 24 7   100.61     LegendNANA
10:00 5.2 0.9 74 0.0 27 5   100.69     LegendNANA
11:00 5.9 0.1 67 0.0 30 3   100.71     LegendNANA
12:00 6.1 0.3 66 0.0 30 3   100.72     LegendNANA
13:00 6.5 0.2 64 0.2 28 2   100.68     LegendNANA
14:00 5.7 0.7 70 0.0 23 8   100.71     LegendNANA
15:00 5.7 0.6 70 0.0 24 5   100.73     LegendNANA
16:00 5.3 0.2 70 0.0 25 5   100.77     LegendNANA
17:00 4.3 0.6 77 0.0 27 4   100.83     LegendNANA
18:00 4.3 0.4 76 0.0 26 4   100.87     LegendNANA
19:00 4.1 -1.8 65 0.0 29 4   100.87     LegendNANA
20:00 3.2 -1.6 70 0.0 29 4   100.92     LegendNANA
21:00 3.3 -1.2 72 0.0 36 5   100.99     LegendNANA
22:00 2.9 0.1 81 0.0 29 2   101.06     LegendNANA
23:00 3.1 -1.0 74 0.0 25 6   101.13     LegendNANA

Notes on Data Quality.

Legend

  • E = Estimated
  • M = Missing
  • NA = Not Available*
  • [empty] = Indicates an unobserved value
Date modified: